La Grande, OR

1:04 AM PST on December 11, 2019 (GMT -0800)
La Grande-Union County

Weather History for KLGD - September, 2019

Change the Weather History Date:

Monday, September 16, 2019

  Actual Average Record
Temperature  
Mean Temperature 54 °F -  
Max Temperature 63 °F 72 °F 95 °F (1981)
Min Temperature 46 °F 41 °F 30 °F (1969)
Degree Days  
Heating Degree Days 12    
Growing Degree Days 4 (Base 50)    
Moisture  
Dew Point 44 °F    
Average Humidity 72    
Maximum Humidity 86    
Minimum Humidity 48    
Precipitation  
Precipitation 0.04 in - - ()
Sea Level Pressure  
Sea Level Pressure 30.22 in    
Wind  
Wind Speed 9 mph (NW)    
Max Wind Speed 17 mph    
Max Gust Speed 26 mph    
Visibility 10 miles    
Events Rain    
Averages and records for this station are not official NWS values.
T = Trace of Precipitation, MM = Missing Value Source: NWS Daily Summary

Daily Weather History Graph

Daily Weather History Graph

Search for Another Location

Airport or City:

Astronomy

Sep. 16, 2019 Rise Set
Actual Time 6:31 AM PDT 7:01 PM PDT
Civil Twilight 6:02 AM PDT 7:30 PM PDT
Nautical Twilight 5:26 AM PDT 8:05 PM PDT
Astronomical Twilight 4:50 AM PDT 8:42 PM PDT
Moon 8:32 PM PDT (9/16) 8:47 AM PDT (9/16)
Length of Visible Light 13h 28m
Length of Day
12h 29m
Waning Gibbous, 94% of the Moon is Illuminated
Sep 16
Waning Gibbous
Sep 21
Last Quarter
Sep 28
New
Oct 5
First Quarter
Oct 13
Full

Hourly Weather History & Observations

Time (PDT) Temp. Dew Point Humidity Pressure Visibility Wind Dir Wind Speed Gust Speed Precip Events Conditions
12:56 AM 55.9 °F 42.1 °F 60% 30.23 in 10.0 mi WNW 13.8 mph - N/A   Mostly Cloudy
1:56 AM 55.0 °F 42.1 °F 62% 30.21 in 10.0 mi WNW 10.4 mph - N/A   Clear
2:56 AM 55.0 °F 42.1 °F 62% 30.21 in 10.0 mi NW 9.2 mph - N/A   Overcast
3:56 AM 53.1 °F 42.1 °F 66% 30.20 in 10.0 mi West 5.8 mph - N/A   Clear
4:56 AM 48.0 °F 42.1 °F 80% 30.21 in 10.0 mi Calm Calm - N/A   Clear
5:56 AM 48.0 °F 42.1 °F 80% 30.19 in 10.0 mi NE 4.6 mph - N/A   Clear
6:56 AM 46.9 °F 42.1 °F 83% 30.20 in 10.0 mi East 4.6 mph - N/A   Clear
7:56 AM 50.0 °F 43.0 °F 77% 30.21 in 10.0 mi Calm Calm - N/A   Clear
8:56 AM 54.0 °F 44.1 °F 69% 30.24 in 10.0 mi WNW 17.3 mph 26.5 mph N/A   Mostly Cloudy
9:56 AM 55.0 °F 44.1 °F 67% 30.26 in 10.0 mi NW 13.8 mph - N/A   Overcast
10:56 AM 55.9 °F 43.0 °F 62% 30.25 in 10.0 mi NW 12.7 mph - N/A   Overcast
11:56 AM 59.0 °F 42.1 °F 53% 30.23 in 10.0 mi NW 10.4 mph - N/A   Overcast
12:56 PM 61.0 °F 41.0 °F 48% 30.23 in 10.0 mi NW 11.5 mph - N/A   Partly Cloudy
1:56 PM 60.1 °F 43.0 °F 53% 30.24 in 10.0 mi NW 16.1 mph - N/A   Overcast
2:56 PM 57.9 °F 43.0 °F 58% 30.25 in 10.0 mi WNW 13.8 mph - 0.00 in Rain Light Rain
3:56 PM 55.0 °F 46.0 °F 72% 30.26 in 10.0 mi NW 11.5 mph - 0.00 in Rain Light Rain
4:56 PM 54.0 °F 48.9 °F 83% 30.27 in 10.0 mi North 5.8 mph - 0.04 in Rain Light Rain
5:56 PM 53.1 °F 48.9 °F 86% 30.29 in 10.0 mi Calm Calm - 0.00 in   Overcast
6:18 PM 53.6 °F 48.2 °F 82% 29.88 in 10.0 mi NW 4.6 mph - N/A   Overcast
6:27 PM 53.6 °F 48.2 °F 82% 29.88 in 10.0 mi NNW 3.5 mph - N/A   Overcast
6:56 PM 53.1 °F 48.9 °F 86% 30.29 in 10.0 mi Calm Calm - N/A   Scattered Clouds
7:56 PM 52.0 °F 46.0 °F 80% 30.31 in 10.0 mi NNW 6.9 mph - N/A   Mostly Cloudy
8:56 PM 51.1 °F 46.0 °F 83% 30.32 in 10.0 mi NW 8.1 mph - N/A   Mostly Cloudy
9:56 PM 50.0 °F 45.0 °F 83% 30.32 in 10.0 mi NW 4.6 mph - N/A   Mostly Cloudy
10:56 PM 48.9 °F 44.1 °F 83% 30.32 in 10.0 mi NNW 10.4 mph - N/A   Clear
11:56 PM 48.9 °F 44.1 °F 83% 30.32 in 10.0 mi NW 12.7 mph - N/A   Mostly Cloudy